Helicity
162 159 129 147 169 186 146 148 217 150 107 127 112 96 87 133 192 213 168 115 88 94 100 103 106 156 234 272 334 417 450 423 342 408 415 363 356 329 310 264 166 173 158 209
163 140 135 154 130 168 159 143 147 119 110 70 92 159 179 150 130 119 109 112 112 119 117 86 106 176 169 192 318 420 381 344 363 492 384 346 342 311 297 307 215 162 220 199
190 167 155 305 196 117 106 83 115 105 104 87 138 136 117 130 122 97 86 76 66 65 64 85 119 165 182 132 287 369 414 326 337 373 371 357 351 335 314 270 204 254 250 232
211 197 396 200 75 95 76 114 141 103 70 92 86 116 131 76 92 68 66 40 52 63 98 99 111 86 66 133 198 240 242 260 294 379 403 437 345 307 311 279 252 268 275 270
294 294 273 127 78 82 79 47 81 99 100 83 108 168 97 55 45 39 46 31 71 97 101 104 57 37 57 86 131 162 196 248 299 304 390 449 460 356 287 283 266 276 295 233
311 310 322 209 123 158 159 85 117 98 101 128 122 78 81 33 44 35 36 50 55 66 75 65 44 61 77 93 121 128 174 171 228 269 385 445 489 375 338 320 317 327 269 177
224 230 258 220 238 125 89 84 124 113 134 74 36 51 47 46 43 45 40 32 37 56 55 44 51 62 89 101 91 110 161 190 212 236 281 313 348 311 336 349 302 267 211 208
270 249 191 234 197 141 179 112 83 10 -17 42 42 -10 8 38 48 63 38 25 38 69 46 53 57 77 74 66 84 118 164 186 191 197 226 271 323 300 310 286 250 235 223 169
176 172 150 85 109 84 91 91 37 -3 69 39 30 10 54 64 67 58 49 24 49 47 49 58 115 100 71 48 75 108 163 176 193 210 232 284 348 292 280 288 244 219 209 190
118 115 60 1 36 108 117 26 19 48 -8 51 40 55 63 95 74 86 64 56 87 31 53 102 131 78 63 66 65 101 138 161 193 226 251 270 249 244 235 240 207 198 190 170
100 45 35 0 1 29 -13 14 38 65 32 41 65 46 103 115 91 92 60 47 73 60 26 73 112 72 64 62 70 96 125 152 169 213 267 263 209 204 210 188 210 205 183 158
60 22 60 1 37 37 11 -10 -18 36 28 46 98 75 102 104 91 113 82 63 59 49 51 57 47 49 45 53 68 108 137 164 180 225 260 250 225 170 140 144 138 112 131 165
77 95 93 70 75 63 63 32 32 61 44 58 85 104 134 164 163 148 107 95 62 35 31 51 60 31 35 41 90 87 123 158 193 224 249 251 228 197 180 125 93 88 66 66
69 52 84 114 84 121 96 106 89 45 43 67 83 131 209 242 192 142 129 96 74 70 75 99 105 89 56 42 74 112 137 149 173 193 212 227 210 193 192 178 151 95 39 45
48 41 88 33 79 87 51 90 59 76 68 80 146 221 243 201 171 157 123 108 99 101 115 127 123 99 83 76 78 103 119 142 144 142 169 195 205 195 197 179 154 127 132 112
28 37 49 37 48 94 79 41 49 50 84 132 168 175 167 220 225 187 158 124 96 119 131 156 177 153 105 81 85 109 114 113 110 134 144 159 166 178 187 166 162 130 129 128
-25 45 86 80 90 92 75 70 67 85 116 173 190 195 235 258 235 204 170 137 136 149 159 159 158 146 120 83 78 95 107 93 81 108 127 150 156 156 164 168 166 162 147 169
2 23 63 49 49 46 54 68 89 113 114 115 154 203 216 220 204 167 150 150 132 164 144 115 101 90 88 81 72 70 70 96 99 109 131 139 132 134 136 133 129 141 154 172
-3 6 7 11 18 28 42 41 51 77 100 110 107 111 160 166 182 179 225 180 135 139 115 91 77 65 68 74 71 77 79 78 84 94 103 104 107 110 108 109 112 116 126 144
9 14 12 27 44 42 41 43 32 39 57 58 77 105 112 143 183 180 165 141 110 89 81 78 76 71 51 51 67 67 59 63 65 64 65 66 69 71 74 75 90 101 108 117
-1 10 9 20 27 39 21 33 36 43 53 60 88 121 136 131 119 98 108 116 111 100 101 104 78 61 52 46 53 49 48 57 58 59 59 63 64 62 60 62 67 72 75 86
13 14 7 3 37 55 67 66 78 83 92 110 110 125 136 132 135 146 131 101 94 100 97 96 78 63 49 55 52 56 66 67 64 63 65 63 65 70 72 79 84 90 94 97
58 61 52 53 56 66 82 93 95 85 96 113 128 128 129 121 102 103 123 109 93 91 93 88 82 81 79 71 74 79 78 83 81 80 81 79 85 91 97 104 107 112 120 125
52 72 63 86 106 97 104 113 132 140 141 152 169 162 150 154 156 137 114 91 90 130 152 136 133 140 127 107 111 112 118 119 114 116 124 138 137 141 152 154 159 154 157 163
46 75 85 96 106 117 135 145 168 180 204 216 214 211 199 173 137 144 146 130 138 136 145 166 160 149 120 112 108 106 105 119 130 130 141 148 158 169 180 181 182 184 184 188
48 78 81 90 104 124 147 152 170 167 184 216 219 204 202 191 182 181 166 149 144 146 143 144 134 117 114 113 110 117 119 134 149 156 164 175 185 195 201 204 209 215 213 210
64 101 116 126 121 134 147 159 165 172 172 181 192 176 178 174 182 191 178 162 166 156 147 141 134 124 105 109 125 138 145 152 186 178 184 191 198 201 206 210 218 225 233 241
Wind_Speed
88 90 92 95 94 83 84 87 93 93 89 83 79 73 71 56 50 49 53 53 54 53 52 49 44 42 44 42 44 39 34 31 27 25 20 18 22 24 25 24 27 21 18 20
95 84 82 94 87 81 83 86 83 79 82 74 66 56 49 43 39 43 51 52 53 57 59 55 44 50 45 37 38 36 35 32 26 22 19 16 16 20 23 25 29 31 29 22
95 81 79 87 73 71 71 72 74 77 75 68 59 48 37 35 39 46 51 51 50 55 65 62 53 56 59 28 21 26 29 28 25 21 19 18 17 17 23 26 24 28 25 20
93 75 95 70 50 55 66 73 74 70 65 62 53 43 37 35 37 43 49 48 48 52 59 48 47 52 46 28 21 16 18 20 21 22 23 22 19 14 15 18 21 19 21 19
81 76 71 78 62 58 66 72 60 48 49 45 44 44 44 33 32 44 49 53 47 52 56 51 47 45 30 20 15 10 12 13 15 14 14 17 20 18 14 11 15 17 16 22
68 79 90 67 52 65 63 64 53 48 45 36 32 44 38 39 35 46 55 60 63 61 55 49 54 31 21 15 9 4 3 6 5 8 11 15 13 18 17 16 15 25 25 26
72 74 64 63 70 65 54 56 47 47 49 47 39 30 32 45 46 50 56 66 62 53 44 54 42 29 22 11 7 6 4 4 6 2 7 8 8 10 13 14 17 29 23 22
58 64 74 66 66 58 63 58 57 51 49 39 44 41 50 37 44 46 59 65 59 54 49 42 33 28 24 12 14 10 6 5 2 1 1 2 4 5 4 7 15 24 27 31
39 36 55 48 65 55 58 56 65 52 53 54 43 31 29 38 38 40 56 60 55 53 50 42 35 24 23 20 12 9 8 5 4 4 3 2 2 3 4 5 9 14 18 28
52 52 66 80 77 68 70 62 55 53 55 55 47 37 31 26 29 40 43 47 44 56 57 54 33 24 30 26 19 11 7 4 3 3 2 5 2 2 2 3 5 8 11 14
74 92 86 80 73 57 70 55 61 67 62 55 60 47 35 34 30 43 35 42 44 39 38 41 28 25 29 31 23 13 12 9 2 0 3 1 3 7 7 8 9 7 7 10
57 94 87 90 80 83 76 80 76 81 74 51 42 39 35 36 38 38 40 43 43 47 40 32 28 28 31 33 29 17 13 9 4 3 4 5 6 8 5 4 7 7 5 8
87 83 85 90 89 84 94 94 83 73 62 53 52 38 31 29 31 33 39 43 45 42 41 37 26 30 29 30 28 25 19 14 12 9 9 9 9 10 10 13 8 8 9 14
59 86 91 89 87 80 76 80 74 61 51 41 34 31 25 22 28 36 41 47 46 44 38 32 31 34 37 34 28 28 26 21 16 14 15 16 15 16 16 14 12 10 11 11
18 33 47 68 77 71 57 55 61 59 53 47 39 28 20 19 28 37 41 42 41 43 44 35 34 39 36 34 34 32 31 29 22 19 20 20 20 19 19 18 16 15 20 21
66 69 70 74 64 51 52 57 57 60 50 41 31 24 24 26 28 35 39 41 42 44 43 39 38 40 36 35 37 36 34 32 27 24 22 21 20 20 21 20 18 16 20 22
23 62 48 46 47 53 56 57 57 55 51 46 42 35 31 28 33 35 37 40 40 40 39 38 38 40 39 38 37 37 35 33 28 26 24 23 22 20 20 20 21 23 27 23
41 43 40 48 55 59 61 60 59 56 53 47 40 39 32 34 30 31 32 33 34 35 37 37 38 39 38 38 37 35 34 30 26 24 21 19 18 18 18 22 25 29 32 29
48 49 49 50 50 50 49 52 54 55 54 44 37 37 32 25 23 24 28 29 30 32 35 34 34 34 34 35 33 32 30 28 26 23 22 21 22 23 24 27 29 31 33 34
54 54 54 53 49 45 44 44 49 47 43 34 29 24 23 22 21 21 22 26 29 29 31 32 32 33 32 32 32 32 30 29 28 28 27 26 27 29 30 32 34 36 37 38
57 57 56 52 51 49 49 45 42 37 31 26 21 19 17 18 19 21 22 25 30 31 32 31 30 33 33 30 31 33 31 31 30 30 30 31 33 35 37 38 37 38 41 42
59 59 59 57 51 43 39 36 33 32 31 29 24 20 19 20 22 24 27 25 28 30 30 31 31 32 31 31 33 33 33 33 34 35 36 38 39 40 41 41 43 45 46 46
56 52 53 52 48 41 35 30 27 26 26 25 24 21 21 22 23 22 24 27 27 30 30 31 32 32 33 34 36 36 37 38 39 41 42 43 45 46 48 48 48 49 50 51
60 52 51 44 40 37 34 31 26 25 23 23 24 24 22 22 24 25 23 25 27 28 30 32 33 34 35 36 37 39 41 42 44 46 47 48 49 51 51 52 52 53 53 53
63 52 49 43 40 36 31 27 25 24 22 22 23 24 25 26 24 24 25 25 26 27 29 32 33 35 36 38 40 42 44 46 47 48 50 51 53 54 54 54 56 56 55 55
62 55 51 43 35 31 28 25 25 23 21 22 23 22 24 25 24 24 24 24 25 27 29 32 34 36 38 41 43 45 47 49 51 52 53 54 55 56 56 56 55 54 54 53
53 48 46 44 37 30 25 23 22 22 20 20 21 24 26 26 26 25 23 23 25 27 30 33 36 39 41 44 46 48 49 51 53 54 55 56 57 57 56 55 55 54 54 53
Wind_Direction
297 299 301 299 299 302 300 299 298 302 303 304 305 307 310 312 307 306 308 310 315 319 319 318 311 298 290 284 283 274 267 264 264 274 264 267 260 254 257 267 264 274 267 275
299 304 301 299 299 302 301 302 300 300 299 306 309 312 314 317 319 318 315 317 319 320 320 319 317 311 303 282 273 267 263 263 266 265 259 251 240 251 259 261 269 272 270 272
302 308 309 302 303 304 305 304 305 304 307 310 307 308 313 317 318 319 320 322 322 324 317 320 320 316 304 284 265 263 259 256 256 250 239 234 241 242 258 264 259 268 267 265
304 305 300 311 320 315 309 306 305 302 306 309 310 311 316 319 323 326 328 330 327 325 325 333 334 329 316 309 292 263 247 246 252 251 253 251 247 234 252 255 256 253 259 265
301 302 306 310 315 318 317 312 314 313 313 321 319 318 318 326 325 326 331 330 334 329 326 331 336 339 335 341 322 296 275 255 257 242 233 243 257 265 259 249 254 247 240 269
301 303 303 315 319 317 316 307 312 315 317 322 335 324 322 335 334 328 324 325 328 328 322 326 312 349 7 13 41 84 293 267 265 203 199 191 212 265 278 269 250 261 270 270
294 297 304 319 315 312 308 307 321 316 310 312 314 332 337 324 329 328 329 327 330 334 319 301 317 336 352 27 101 88 35 337 300 230 179 197 220 265 265 260 261 269 271 260
300 296 299 319 313 307 301 300 303 306 313 323 313 314 311 327 332 341 332 331 334 337 316 306 318 328 339 7 354 355 34 37 56 102 306 219 230 260 255 239 264 268 266 268
314 312 312 320 297 313 305 304 294 307 306 302 326 328 331 331 338 344 334 329 341 335 315 308 305 325 332 349 6 358 347 14 34 46 41 104 220 248 265 252 248 258 257 268
307 301 298 285 286 297 275 296 299 305 289 309 316 323 327 338 343 341 344 338 341 335 308 281 305 320 313 334 343 340 351 17 29 88 93 115 92 177 176 189 211 256 251 247
292 282 290 281 285 298 299 305 304 302 303 308 310 314 316 326 333 334 343 345 339 341 355 289 301 322 323 325 336 334 325 327 329 2 161 193 154 160 173 170 170 183 232 237
278 278 282 273 285 292 295 291 298 297 297 308 317 320 323 326 328 332 334 340 341 328 333 336 327 324 324 325 327 331 321 317 296 275 268 274 279 306 298 276 194 190 226 217
279 281 279 275 282 289 281 276 288 296 302 306 307 314 322 327 331 333 331 337 335 339 326 323 327 319 332 332 329 324 319 310 301 288 274 270 272 281 288 304 281 226 207 192
294 281 273 273 279 285 291 289 292 295 301 311 315 318 317 320 330 325 326 330 334 334 335 332 322 318 317 323 333 326 322 314 302 293 283 283 281 282 288 286 283 283 268 241
270 307 308 265 289 293 300 302 298 302 306 306 305 308 310 315 321 323 323 330 336 338 333 332 323 317 321 320 319 318 319 315 312 300 292 287 287 287 286 286 283 287 295 290
295 294 294 288 290 304 304 300 303 304 309 307 304 300 305 314 321 324 328 329 330 332 333 329 326 324 324 321 317 315 316 317 316 308 299 292 287 285 287 284 282 283 290 293
216 281 311 310 310 307 306 305 308 310 310 305 305 306 305 310 315 319 326 331 335 337 336 332 326 325 327 322 319 318 318 318 319 314 307 301 295 290 292 292 288 291 295 296
334 337 331 312 305 304 307 307 307 308 306 309 311 303 303 304 313 323 332 338 341 341 336 332 329 329 331 330 328 325 324 325 326 323 323 320 314 309 308 305 304 302 303 304
329 329 326 322 325 328 328 321 316 309 305 309 308 302 308 316 328 334 338 341 340 337 335 339 342 344 344 343 345 346 345 344 341 337 332 327 322 317 315 313 312 310 308 306
322 326 322 326 335 344 344 343 329 328 320 316 312 315 322 332 342 356 3 351 348 348 345 343 345 347 349 350 351 350 349 348 348 344 341 338 332 326 323 321 318 315 313 311
323 323 323 329 329 332 325 337 344 356 8 7 3 351 352 2 3 3 4 358 349 349 348 354 1 359 358 357 352 346 351 350 349 347 346 341 335 330 326 324 323 322 320 318
320 318 310 308 324 340 352 357 360 2 4 2 7 14 9 3 360 357 353 358 356 354 355 357 356 359 2 359 354 353 353 351 349 345 341 337 334 331 329 328 325 323 322 322
327 329 323 317 321 333 345 358 7 15 21 20 16 13 6 1 357 357 350 354 359 357 355 353 353 354 353 351 350 349 347 345 343 341 338 336 333 331 329 327 327 326 324 323
321 326 324 325 326 326 329 339 352 0 9 12 12 13 8 356 351 354 2 359 355 353 352 351 353 355 354 353 351 349 347 344 341 339 337 337 335 334 333 332 330 329 327 326
312 319 322 320 319 319 324 330 338 342 351 355 360 1 354 344 341 341 346 348 352 352 352 352 355 355 354 353 349 347 344 343 343 343 342 341 339 337 336 334 332 331 330 329
311 312 313 316 316 318 320 319 319 325 332 336 345 350 345 340 340 342 345 351 352 352 349 347 348 350 348 347 345 345 345 344 343 343 343 342 341 340 339 338 337 336 335 333
316 317 315 315 315 314 312 311 313 315 322 325 330 329 324 328 332 335 339 341 342 342 342 342 342 343 344 344 345 345 345 345 345 344 344 343 343 342 342 341 340 338 337 336